Wind_Speed
16 15 15 15 15 15 14 13 13 13 13 13 13 12 11 11 11 10 9 9 9 10 10 10 11 11 11 11 11 10 9 8 7 6 6 6 5 5 5 5 6 7
17 16 15 15 15 15 14 14 14 13 13 13 13 12 12 12 11 11 10 10 10 10 10 11 12 12 13 12 12 10 9 8 7 6 6 5 5 4 3 4 6 7
18 17 15 15 15 15 15 15 15 15 14 13 13 12 12 12 12 11 10 10 10 10 11 11 13 14 14 13 12 11 9 8 7 7 6 5 5 4 3 4 5 6
19 18 17 16 16 16 16 16 15 15 15 14 14 14 13 13 12 11 11 11 11 11 11 12 14 15 15 14 13 11 10 9 8 7 7 6 5 5 4 4 4 5
20 19 18 17 17 16 16 16 16 15 16 16 16 15 15 14 14 13 12 12 12 11 11 13 14 15 14 14 13 12 11 10 9 8 7 6 6 5 5 4 4 4
22 21 20 18 17 17 16 16 16 16 16 17 17 16 16 15 15 14 13 12 12 11 11 12 14 15 14 14 14 13 12 11 10 9 8 7 6 5 5 5 4 4
24 22 21 20 18 17 17 17 16 16 17 17 17 17 16 15 15 14 13 13 12 11 11 11 13 14 14 14 14 14 13 12 11 10 8 7 6 5 5 5 4 4
26 25 23 21 20 19 18 18 17 17 17 16 16 17 16 16 15 14 13 13 12 11 11 11 13 14 15 15 15 15 14 13 12 11 9 8 7 5 5 4 4 4
28 27 25 23 21 20 20 19 19 18 18 17 17 17 17 16 16 15 14 13 12 11 11 12 13 15 16 16 16 16 16 14 13 12 10 9 8 6 5 4 4 3
30 29 27 25 23 22 22 21 21 20 19 19 19 18 17 17 16 15 14 13 13 12 12 13 14 15 16 17 18 18 17 16 14 13 11 10 9 8 6 5 4 3
30 30 28 27 25 24 24 23 22 21 20 20 20 19 18 18 17 16 14 14 14 13 13 13 14 15 16 17 18 18 18 17 16 14 12 11 9 8 8 6 5 4
29 29 28 28 28 27 26 26 25 23 21 21 21 21 20 19 18 17 16 15 15 15 14 14 14 15 16 16 17 17 17 17 16 15 13 12 10 9 8 8 7 6
29 28 29 29 29 29 29 28 27 26 24 22 22 22 22 21 20 19 18 18 17 16 16 15 14 14 15 15 15 16 17 17 17 16 15 14 12 10 9 8 8 7
29 29 30 30 30 31 31 31 29 28 27 25 24 23 23 23 22 21 21 20 19 18 18 17 15 14 14 14 15 16 17 17 17 17 17 16 14 12 10 9 8 8
30 31 31 32 32 32 32 32 31 30 29 28 26 25 24 24 24 24 23 21 20 20 19 18 16 15 14 14 15 16 17 18 18 18 18 17 16 14 13 11 10 9
31 32 32 33 33 33 32 33 33 32 31 30 28 27 26 25 25 25 24 22 22 21 20 19 18 17 17 16 17 17 18 19 19 18 18 17 16 16 15 14 13 12
32 32 32 32 32 32 33 33 34 34 33 32 30 29 28 27 26 25 24 23 23 22 21 20 19 19 19 19 19 19 19 19 19 19 19 18 18 17 16 16 16 14
31 31 31 31 31 30 31 32 33 34 34 33 32 31 30 29 27 25 25 24 24 23 22 21 21 21 21 21 21 21 21 21 20 20 20 19 18 18 18 18 18 17
29 29 29 29 29 28 29 30 31 32 32 33 33 33 32 31 29 28 27 26 25 25 24 23 22 23 23 23 23 23 22 22 22 21 21 20 19 19 19 19 19 19
27 26 26 27 28 29 29 29 28 29 30 32 33 34 34 33 32 31 30 29 28 27 26 25 25 24 25 24 24 24 24 23 23 22 22 21 20 20 20 20 21 21
25 24 25 26 28 29 30 29 28 28 30 31 33 34 35 34 34 34 33 32 31 31 30 28 27 27 27 26 25 25 25 24 23 23 23 22 22 22 21 22 22 23
26 25 26 26 28 30 30 30 29 29 30 32 33 34 35 36 36 36 35 35 34 33 32 30 30 30 30 29 27 27 26 24 23 23 23 23 23 23 23 24 24 25
27 27 27 27 28 30 31 31 31 31 32 33 34 34 35 36 36 36 36 36 36 35 34 33 33 33 33 32 30 29 27 25 23 23 23 24 24 25 25 26 26 27
29 29 29 28 27 28 30 32 33 33 34 34 34 35 35 35 36 37 37 37 37 36 35 34 35 36 36 35 33 32 30 27 25 24 23 23 24 26 26 27 27 28
31 30 30 29 28 27 28 32 34 35 36 36 35 35 35 36 37 38 37 37 37 37 36 36 36 37 37 36 35 34 32 30 28 26 25 24 25 26 27 27 28 29
32 32 32 30 29 29 29 32 34 36 37 37 36 36 36 37 37 37 37 37 37 37 37 37 36 37 37 36 35 35 34 32 31 29 27 27 27 28 28 28 29 29
Wind_Direction
197 195 194 194 191 186 184 185 187 188 190 192 194 196 198 201 201 194 184 173 162 154 148 145 144 144 145 144 141 138 136 131 126 123 119 117 118 118 115 115 116 119
199 199 196 197 195 191 190 190 188 188 190 192 194 197 200 202 203 197 187 176 164 156 153 151 150 150 149 147 144 144 139 132 126 124 122 123 122 115 109 109 111 114
199 202 199 199 199 196 196 196 192 190 190 190 192 196 200 203 203 199 189 178 167 160 158 157 157 156 155 153 151 148 142 134 129 126 124 125 120 108 94 88 96 108
200 203 204 202 203 202 201 200 198 194 191 189 192 195 197 201 202 199 190 180 172 166 163 163 163 162 161 158 154 151 145 138 133 129 124 121 115 105 94 83 85 102
202 204 207 206 205 207 207 206 205 202 196 194 195 195 195 199 201 199 190 183 177 172 168 167 168 167 165 161 158 153 149 143 137 134 130 124 119 111 103 95 91 95
204 204 208 209 207 206 209 212 211 209 206 202 199 198 198 199 200 198 191 185 182 178 174 172 172 171 169 165 162 158 153 149 145 142 138 133 128 124 117 111 107 101
205 205 207 210 210 206 208 213 215 215 214 210 206 204 203 202 203 200 193 188 186 183 180 178 176 175 174 170 167 163 159 157 154 152 148 144 139 136 130 123 121 118
205 206 207 209 210 208 207 211 214 215 217 216 215 213 210 208 208 203 195 191 191 187 183 183 181 179 178 175 172 170 167 165 163 160 157 154 150 146 143 138 135 136
206 206 207 208 209 209 209 211 212 213 213 214 217 219 217 215 213 207 199 193 194 193 188 187 186 183 182 180 178 176 175 173 170 168 165 163 160 157 155 155 152 153
206 206 207 207 208 210 211 213 214 213 210 209 213 218 219 220 219 213 205 197 195 196 194 190 189 188 186 185 183 182 182 180 178 177 174 170 168 166 166 169 169 168
209 208 207 207 208 209 211 214 217 217 213 210 212 215 218 220 221 218 212 204 199 199 198 196 194 194 192 190 189 188 187 186 185 184 183 181 178 176 176 179 182 183
211 211 211 210 210 210 211 213 216 218 217 215 213 213 216 219 220 220 216 210 206 204 203 203 202 201 199 197 195 193 192 192 192 192 192 192 190 188 187 187 189 192
210 210 212 214 213 213 213 213 214 215 217 218 217 215 215 217 219 220 220 217 213 209 208 209 209 208 207 205 203 200 197 196 197 198 200 201 201 200 200 200 199 200
209 208 209 212 215 216 215 214 214 214 214 216 218 217 216 217 218 219 221 221 218 214 212 212 212 212 212 211 209 207 205 203 203 204 205 207 208 209 212 213 213 212
208 208 208 210 213 216 217 216 216 216 216 215 216 218 218 218 218 218 220 222 223 221 218 215 214 215 214 213 212 212 212 210 209 209 209 211 212 215 219 222 223 224
208 209 210 210 212 214 216 217 217 218 218 218 217 217 218 219 220 219 219 220 223 224 223 220 216 215 216 216 215 216 216 217 217 216 215 214 215 217 222 226 228 228
208 209 211 213 213 215 217 218 218 218 219 219 219 219 220 221 222 221 221 221 222 223 224 223 220 219 219 218 219 219 220 221 221 222 221 220 219 220 223 228 231 232
208 209 211 214 215 217 219 221 222 221 221 221 221 222 222 223 223 223 223 223 224 223 222 222 223 224 223 221 221 223 224 225 225 227 227 226 225 224 226 229 232 234
207 208 210 212 214 217 221 224 226 226 225 225 224 224 225 225 225 225 225 226 226 226 224 222 223 225 227 226 225 225 226 228 229 231 232 232 232 231 231 233 234 236
206 206 207 209 211 214 218 223 226 228 229 229 228 228 228 228 227 227 227 228 229 229 228 226 225 226 228 229 228 228 228 228 229 231 233 235 236 236 236 237 238 239
203 201 202 205 208 211 214 218 221 225 227 229 230 230 230 230 230 229 229 229 230 231 231 231 231 232 232 231 231 231 230 229 228 229 232 234 236 238 238 240 241 242
203 201 201 203 205 208 211 214 218 221 224 226 228 229 229 230 231 231 231 231 232 233 234 234 235 237 237 236 235 234 233 232 230 230 231 233 235 238 239 240 242 244
210 208 205 205 205 206 207 211 215 219 222 225 226 227 228 228 230 231 232 232 233 234 234 235 236 238 240 240 239 238 237 234 232 231 231 232 234 237 238 240 243 245
216 216 214 211 210 208 208 209 212 216 220 223 224 225 226 226 227 228 230 231 232 233 233 233 234 237 239 241 241 242 241 239 236 233 232 232 234 237 239 240 243 245
217 221 222 218 214 213 211 211 212 215 219 221 223 223 224 225 225 227 228 229 231 232 232 232 232 235 237 239 241 243 244 243 241 238 235 233 234 237 239 241 242 245
221 223 225 222 217 216 216 214 214 216 219 221 223 224 224 225 226 227 227 228 229 231 232 233 233 234 237 238 241 243 245 245 244 243 239 236 235 237 239 241 243 245
Height
5933 5934 5935 5936 5937 5937 5938 5939 5940 5941 5943 5944 5945 5945 5946 5947 5948 5949 5950 5951 5952 5953 5953 5953 5954 5954 5955 5955 5956 5956 5956 5956 5956 5957 5957 5957 5957 5958 5958 5958 5959 5959
5932 5933 5934 5936 5937 5937 5938 5939 5940 5941 5942 5943 5944 5945 5946 5947 5948 5949 5950 5951 5952 5953 5954 5954 5954 5955 5955 5956 5956 5956 5956 5956 5957 5957 5957 5958 5958 5958 5959 5959 5959 5959
5932 5933 5934 5935 5936 5937 5938 5939 5940 5940 5941 5943 5944 5945 5946 5947 5948 5949 5950 5952 5952 5953 5954 5954 5955 5955 5956 5956 5957 5957 5957 5957 5957 5957 5958 5958 5959 5959 5959 5959 5959 5959
5931 5932 5933 5934 5935 5936 5937 5938 5939 5940 5941 5942 5943 5944 5945 5947 5948 5949 5950 5952 5952 5953 5954 5955 5955 5956 5956 5956 5957 5957 5957 5957 5957 5958 5958 5959 5959 5959 5959 5959 5960 5960
5930 5931 5932 5933 5935 5936 5937 5938 5939 5940 5941 5941 5942 5943 5945 5946 5947 5949 5950 5951 5952 5953 5954 5955 5955 5956 5956 5956 5956 5957 5957 5957 5957 5958 5959 5959 5959 5959 5960 5960 5960 5961
5928 5930 5931 5932 5933 5935 5936 5937 5938 5939 5940 5941 5942 5943 5944 5945 5946 5948 5949 5951 5952 5953 5954 5955 5955 5955 5956 5956 5956 5956 5957 5957 5958 5958 5959 5959 5959 5960 5960 5960 5961 5961
5926 5928 5930 5931 5932 5934 5935 5936 5937 5939 5940 5941 5941 5942 5943 5944 5946 5947 5949 5950 5951 5952 5953 5954 5955 5955 5955 5956 5956 5956 5957 5957 5958 5959 5959 5959 5960 5960 5960 5960 5961 5961
5923 5925 5928 5930 5931 5932 5933 5935 5936 5938 5939 5940 5941 5942 5943 5944 5945 5946 5948 5949 5950 5951 5952 5953 5954 5954 5955 5956 5956 5956 5957 5957 5958 5959 5959 5959 5960 5960 5960 5961 5961 5961
5921 5923 5926 5928 5930 5932 5932 5933 5934 5936 5937 5939 5940 5941 5942 5943 5944 5945 5947 5949 5950 5951 5951 5952 5953 5954 5954 5955 5956 5956 5957 5957 5958 5958 5959 5959 5960 5960 5960 5961 5961 5961
5918 5920 5923 5926 5928 5930 5931 5932 5933 5934 5935 5937 5938 5940 5941 5942 5943 5944 5946 5947 5948 5949 5950 5951 5952 5952 5953 5954 5955 5955 5956 5957 5957 5958 5958 5959 5959 5960 5960 5960 5961 5961
5916 5918 5920 5923 5925 5927 5929 5931 5931 5933 5934 5935 5936 5938 5939 5940 5942 5943 5945 5946 5947 5948 5949 5950 5950 5951 5952 5953 5953 5954 5955 5956 5956 5957 5958 5958 5958 5959 5959 5960 5960 5961
5914 5917 5919 5920 5922 5924 5926 5928 5930 5931 5932 5933 5934 5935 5937 5938 5940 5941 5943 5944 5946 5947 5947 5948 5949 5950 5951 5951 5952 5953 5954 5955 5955 5956 5957 5957 5958 5958 5958 5959 5959 5960
5912 5915 5917 5918 5919 5921 5922 5924 5927 5929 5930 5932 5933 5933 5935 5936 5938 5939 5941 5942 5944 5945 5946 5947 5948 5948 5949 5950 5951 5952 5953 5954 5954 5955 5956 5956 5957 5957 5957 5958 5958 5959
5910 5911 5913 5914 5916 5918 5919 5922 5924 5926 5928 5929 5930 5932 5933 5934 5936 5937 5939 5940 5942 5943 5944 5945 5946 5947 5948 5949 5950 5951 5951 5952 5953 5954 5954 5955 5955 5956 5956 5957 5957 5958
5906 5908 5909 5911 5912 5914 5917 5919 5921 5923 5925 5926 5928 5930 5931 5932 5933 5935 5936 5938 5939 5941 5942 5943 5944 5945 5946 5947 5948 5949 5950 5950 5951 5952 5952 5953 5954 5954 5955 5955 5956 5956
5903 5905 5906 5908 5909 5912 5914 5916 5918 5920 5922 5924 5926 5927 5929 5930 5931 5933 5934 5936 5937 5938 5940 5941 5942 5943 5944 5944 5945 5946 5947 5948 5949 5950 5951 5951 5952 5952 5953 5953 5954 5954
5900 5902 5904 5905 5907 5909 5911 5913 5915 5917 5919 5921 5923 5925 5926 5927 5929 5931 5933 5934 5935 5936 5937 5939 5940 5940 5941 5941 5942 5943 5944 5945 5947 5947 5948 5949 5950 5950 5951 5951 5952 5952
5897 5899 5901 5903 5905 5908 5910 5912 5913 5915 5917 5919 5921 5923 5924 5925 5927 5929 5930 5931 5932 5933 5935 5936 5937 5937 5938 5938 5939 5940 5941 5942 5944 5945 5946 5947 5947 5948 5949 5949 5949 5950
5894 5896 5898 5901 5903 5906 5908 5910 5912 5914 5916 5918 5919 5920 5921 5923 5925 5926 5927 5929 5930 5931 5932 5934 5934 5934 5935 5935 5936 5937 5938 5939 5941 5942 5943 5944 5945 5946 5946 5947 5947 5947
5891 5893 5896 5898 5900 5902 5904 5907 5910 5912 5914 5916 5917 5917 5919 5921 5922 5923 5925 5926 5927 5928 5930 5931 5932 5932 5932 5932 5933 5934 5935 5936 5938 5939 5940 5942 5943 5943 5944 5944 5945 5945
5888 5890 5892 5894 5896 5898 5900 5903 5906 5908 5910 5911 5913 5914 5916 5918 5919 5920 5921 5922 5924 5925 5927 5928 5929 5930 5930 5930 5931 5931 5932 5933 5935 5936 5938 5939 5940 5941 5942 5942 5942 5942
5886 5887 5888 5890 5891 5893 5896 5899 5902 5904 5905 5906 5908 5910 5912 5913 5915 5917 5918 5919 5920 5922 5924 5926 5927 5927 5927 5928 5928 5929 5929 5931 5932 5934 5935 5936 5937 5938 5939 5939 5939 5939
5883 5884 5885 5886 5887 5890 5892 5895 5897 5899 5901 5902 5903 5905 5907 5909 5911 5913 5914 5915 5917 5919 5921 5923 5924 5924 5924 5925 5926 5926 5927 5928 5930 5931 5932 5933 5934 5934 5935 5936 5936 5936
5881 5882 5884 5884 5886 5887 5889 5891 5893 5894 5896 5897 5899 5901 5902 5904 5906 5907 5909 5911 5913 5915 5917 5919 5920 5920 5921 5922 5923 5924 5925 5926 5927 5928 5929 5930 5931 5931 5932 5932 5933 5933
5878 5880 5882 5883 5885 5886 5887 5888 5889 5890 5891 5892 5894 5896 5898 5899 5901 5902 5905 5907 5909 5911 5912 5914 5915 5916 5917 5919 5920 5921 5922 5924 5924 5925 5926 5927 5928 5928 5928 5929 5929 5930
5875 5877 5879 5881 5883 5883 5884 5885 5885 5886 5888 5889 5891 5893 5894 5896 5897 5899 5901 5903 5905 5907 5908 5910 5912 5913 5914 5916 5917 5918 5920 5921 5921 5922 5923 5924 5924 5924 5925 5925 5926 5926